Location: Unspecified
(0.0000°N, 0.0000°E)
Time: 06:23:19
(UTC+00:00)

Eole - Pass Details

Date: 22 May 2026
Orbit: 620 x 764 km, 50.1° (Epoch: 8 June)

Event Time Altitude Azimuth Distance (km) Brightness Sun altitude
Rises 19:03:41 0° 201° (SSW) 3,132 10.2 -15.6°
Reaches altitude 10° 19:06:20 10° 191° (S) 2,185 9.3 -16.3°
Maximum altitude 19:10:51 33° 128° (SE) 1,163 7.4 -17.3°
Enters shadow 19:11:22 32° 115° (ESE) 1,177 7.4 -17.4°
